Coolidge Muni, Coolidge, AZ

3:42 AM MST on December 13, 2019 (GMT -0700)
Coolidge Muni, Coolidge

Weather History for KP08 - September, 2019

Change the Weather History Date:

Thursday, September 26, 2019

  Actual Average (WUND) Record (WUND)
Temperature  
Mean Temperature 78 °F -  
Max Temperature 86 °F - - (-1)
Min Temperature 69 °F - - (-1)
Cooling Degree Days 12    
Growing Degree Days 28 (Base 50)    
Moisture  
Dew Point 60 °F    
Average Humidity 57    
Maximum Humidity 78    
Minimum Humidity 35    
Precipitation  
Precipitation 0.00 in - - ()
Sea Level Pressure  
Sea Level Pressure 29.95 in    
Wind  
Wind Speed 6 mph ()    
Max Wind Speed 18 mph    
Max Gust Speed 17 mph    
Visibility 9.9 miles    
Events Rain    
Averages and records for this station are not official NWS values.
T = Trace of Precipitation, MM = Missing Value Source: Averaged Metar Reports

Daily Weather History Graph

Daily Weather History Graph

Search for Another Location

Airport or City:

Astronomy

Sep. 26, 2019 Rise Set
Actual Time 6:16 AM MST 6:17 PM MST
Civil Twilight 5:51 AM MST 6:41 PM MST
Nautical Twilight 5:23 AM MST 7:10 PM MST
Astronomical Twilight 4:54 AM MST 7:39 PM MST
Moon 3:40 AM MST (9/26) 5:22 PM MST (9/26)
Length of Visible Light 12h 50m
Length of Day
12h 00m
Waning Crescent, 6% of the Moon is Illuminated
Sep 26
Waning Crescent
Sep 28
New
Oct 5
First Quarter
Oct 13
Full
Oct 21
Last Quarter

Hourly Weather History & Observations

Time (MST) Temp. Heat Index Dew Point Humidity Pressure Visibility Wind Dir Wind Speed Gust Speed Precip Events Conditions
12:15 AM 77.0 °F - 60.8 °F 57% 29.95 in 10.0 mi South 6.9 mph - N/A   Overcast
12:30 AM 77.0 °F - 60.8 °F 57% 29.95 in 10.0 mi South 6.9 mph - N/A   Overcast
12:55 AM 77.0 °F - 60.8 °F 57% 29.96 in 10.0 mi SSE 6.9 mph - N/A   Overcast
1:15 AM 77.0 °F - 59.0 °F 54% 29.96 in 10.0 mi SE 6.9 mph - N/A   Overcast
1:35 AM 77.0 °F - 59.0 °F 54% 29.96 in 10.0 mi ESE 9.2 mph - N/A   Overcast
1:55 AM 77.0 °F - 60.8 °F 57% 29.96 in 10.0 mi SE 11.5 mph - N/A   Overcast
2:15 AM 75.2 °F - 60.8 °F 61% 29.96 in 10.0 mi ESE 9.2 mph - N/A   Overcast
2:35 AM 73.4 °F - 60.8 °F 65% 29.96 in 10.0 mi East 6.9 mph - N/A   Overcast
2:55 AM 73.4 °F - 60.8 °F 65% 29.96 in 10.0 mi East 5.8 mph - N/A   Overcast
3:15 AM 73.4 °F - 60.8 °F 65% 29.96 in 10.0 mi ENE 4.6 mph - N/A   Overcast
3:35 AM 73.4 °F - 60.8 °F 65% 29.96 in 10.0 mi ENE 4.6 mph - N/A   Overcast
3:55 AM 73.4 °F - 60.8 °F 65% 29.96 in 10.0 mi East 5.8 mph - N/A   Overcast
4:15 AM 73.4 °F - 60.8 °F 65% 29.96 in 10.0 mi ESE 5.8 mph - N/A   Scattered Clouds
4:35 AM 71.6 °F - 60.8 °F 69% 29.96 in 10.0 mi ESE 6.9 mph - N/A   Partly Cloudy
4:55 AM 71.6 °F - 62.6 °F 73% 29.97 in 10.0 mi ESE 5.8 mph - N/A   Mostly Cloudy
5:15 AM 71.6 °F - 62.6 °F 73% 29.97 in 10.0 mi ESE 5.8 mph - N/A   Overcast
5:30 AM 71.6 °F - 60.8 °F 69% 29.97 in 10.0 mi ESE 4.6 mph - N/A   Overcast
5:55 AM 71.6 °F - 62.6 °F 73% 29.98 in 10.0 mi ESE 5.8 mph - N/A   Overcast
6:15 AM 71.6 °F - 62.6 °F 73% 29.98 in 10.0 mi ESE 6.9 mph - N/A   Mostly Cloudy
6:35 AM 71.6 °F - 60.8 °F 69% 29.99 in 10.0 mi ESE 8.1 mph - N/A   Scattered Clouds
6:55 AM 73.4 °F - 60.8 °F 65% 29.99 in 10.0 mi ESE 6.9 mph - N/A   Scattered Clouds
7:10 AM 73.4 °F - 62.6 °F 69% 29.99 in 10.0 mi ESE 6.9 mph - N/A   Partly Cloudy
7:30 AM 73.4 °F - 62.6 °F 69% 30.00 in 10.0 mi SE 6.9 mph - N/A   Clear
7:55 AM 75.2 °F - 60.8 °F 61% 30.01 in 9.0 mi ESE 6.9 mph - N/A   Partly Cloudy
8:15 AM 77.0 °F - 60.8 °F 57% 30.01 in 10.0 mi SSE 8.1 mph - N/A   Partly Cloudy
8:35 AM 78.8 °F - 60.8 °F 54% 30.01 in 10.0 mi SE 8.1 mph - N/A   Partly Cloudy
8:55 AM 78.8 °F - 60.8 °F 54% 30.02 in 10.0 mi SSE 10.4 mph - N/A   Clear
9:15 AM 80.6 °F 81.5 °F 60.8 °F 51% 30.02 in 10.0 mi SSE 12.7 mph - N/A   Clear
9:35 AM 80.6 °F 81.1 °F 59.0 °F 48% 30.02 in 10.0 mi SSE 10.4 mph - N/A   Clear
9:55 AM 80.6 °F 81.1 °F 59.0 °F 48% 30.02 in 10.0 mi Variable 6.9 mph 16.1 mph N/A   Clear
10:15 AM 84.2 °F 83.8 °F 59.0 °F 42% 30.00 in 10.0 mi SSE 10.4 mph 17.3 mph N/A   Partly Cloudy
10:35 AM 84.2 °F 83.5 °F 57.2 °F 40% 30.00 in 10.0 mi Variable 6.9 mph 17.3 mph N/A   Scattered Clouds
10:55 AM 82.4 °F 82.0 °F 57.2 °F 42% 30.00 in 10.0 mi South 8.1 mph 17.3 mph N/A   Scattered Clouds
11:15 AM 82.4 °F 82.0 °F 57.2 °F 42% 29.99 in 10.0 mi SW 9.2 mph - N/A   Partly Cloudy
11:35 AM 84.2 °F 83.5 °F 57.2 °F 40% 29.98 in 10.0 mi SW 4.6 mph 12.7 mph N/A   Clear
11:55 AM 84.2 °F 83.5 °F 57.2 °F 40% 29.97 in 10.0 mi Calm Calm - N/A   Scattered Clouds
12:15 PM 84.2 °F 83.5 °F 57.2 °F 40% 29.96 in 10.0 mi Variable 4.6 mph 13.8 mph N/A   Scattered Clouds
12:35 PM 86.0 °F 84.5 °F 55.4 °F 35% 29.95 in 10.0 mi SW 10.4 mph 16.1 mph N/A   Partly Cloudy
12:55 PM 84.2 °F 83.0 °F 55.4 °F 37% 29.95 in 10.0 mi South 9.2 mph - N/A   Clear
1:15 PM 82.4 °F 82.5 °F 59.0 °F 45% 29.94 in 8.0 mi WSW 12.7 mph - N/A Rain Light Rain
1:35 PM 75.2 °F - 66.2 °F 73% 29.94 in 4.0 mi WSW 6.9 mph 13.8 mph N/A   Haze
1:55 PM 80.6 °F 80.8 °F 57.2 °F 45% 29.93 in 10.0 mi Calm Calm - N/A   Partly Cloudy
2:15 PM 82.4 °F 82.5 °F 59.0 °F 45% 29.92 in 10.0 mi South 4.6 mph - N/A   Partly Cloudy
2:35 PM 82.4 °F 82.5 °F 59.0 °F 45% 29.92 in 10.0 mi SSW 8.1 mph - N/A   Partly Cloudy
2:55 PM 82.4 °F 82.5 °F 59.0 °F 45% 29.91 in 10.0 mi South 6.9 mph - N/A   Clear
3:15 PM 82.4 °F 82.5 °F 59.0 °F 45% 29.90 in 10.0 mi Variable 3.5 mph - N/A   Clear
3:35 PM 82.4 °F 82.5 °F 59.0 °F 45% 29.89 in 10.0 mi South 3.5 mph - N/A   Clear
3:55 PM 82.4 °F 82.5 °F 59.0 °F 45% 29.89 in 10.0 mi SW 6.9 mph - N/A   Clear
4:15 PM 82.4 °F 82.0 °F 57.2 °F 42% 29.89 in 10.0 mi SW 12.7 mph - N/A   Partly Cloudy
4:35 PM 82.4 °F 82.5 °F 59.0 °F 45% 29.90 in 10.0 mi SW 18.4 mph - N/A   Partly Cloudy
4:55 PM 80.6 °F 81.1 °F 59.0 °F 48% 29.90 in 10.0 mi SW 12.7 mph - N/A   Scattered Clouds
5:15 PM 80.6 °F 81.5 °F 60.8 °F 51% 29.90 in 10.0 mi WSW 8.1 mph - N/A   Partly Cloudy
5:35 PM 80.6 °F 81.5 °F 60.8 °F 51% 29.90 in 10.0 mi SW 9.2 mph - N/A   Clear
5:55 PM 80.6 °F 81.5 °F 60.8 °F 51% 29.90 in 10.0 mi WSW 6.9 mph - N/A   Partly Cloudy
6:15 PM 78.8 °F - 60.8 °F 54% 29.90 in 10.0 mi WSW 5.8 mph - N/A   Partly Cloudy
6:35 PM 78.8 °F - 60.8 °F 54% 29.90 in 10.0 mi SW 5.8 mph - N/A   Clear
6:55 PM 77.0 °F - 60.8 °F 57% 29.90 in 10.0 mi West 5.8 mph - N/A   Clear
7:15 PM 77.0 °F - 60.8 °F 57% 29.91 in 10.0 mi Calm Calm - N/A   Partly Cloudy
7:35 PM 75.2 °F - 60.8 °F 61% 29.91 in 10.0 mi Calm Calm - N/A   Scattered Clouds
7:55 PM 75.2 °F - 60.8 °F 61% 29.91 in 10.0 mi NE 5.8 mph - N/A   Mostly Cloudy
8:15 PM 75.2 °F - 60.8 °F 61% 29.92 in 10.0 mi Calm Calm - N/A   Mostly Cloudy
8:35 PM 75.2 °F - 60.8 °F 61% 29.92 in 10.0 mi NNW 4.6 mph - N/A   Mostly Cloudy
8:55 PM 73.4 °F - 60.8 °F 65% 29.92 in 10.0 mi NW 5.8 mph - N/A   Partly Cloudy
9:15 PM 73.4 °F - 60.8 °F 65% 29.93 in 10.0 mi Calm Calm - N/A   Clear
9:35 PM 73.4 °F - 60.8 °F 65% 29.93 in 10.0 mi North 4.6 mph - N/A   Partly Cloudy
9:50 PM 73.4 °F - 60.8 °F 65% 29.93 in 10.0 mi NNW 3.5 mph - N/A   Mostly Cloudy
10:15 PM 73.4 °F - 60.8 °F 65% 29.93 in 10.0 mi NNW 3.5 mph - N/A   Overcast
10:35 PM 71.6 °F - 60.8 °F 69% 29.93 in 10.0 mi Calm Calm - N/A   Mostly Cloudy
10:55 PM 71.6 °F - 60.8 °F 69% 29.92 in 10.0 mi WNW 5.8 mph - N/A   Scattered Clouds
11:15 PM 69.8 °F - 62.6 °F 78% 29.92 in 10.0 mi WNW 5.8 mph - N/A   Partly Cloudy
11:35 PM 69.8 °F - 62.6 °F 78% 29.91 in 10.0 mi Calm Calm - N/A   Partly Cloudy
11:55 PM 69.8 °F - 62.6 °F 78% 29.92 in 10.0 mi Calm Calm - N/A   Clear